Regional Weather Roundup
Issued by NWS Sterling, VA

Home | Current Version | Previous Version | Graphics & Text | Print | Product List | Glossary On
Versions: 1 2 3 4 5 6 7 8 9 10 11 12 13 14 15 16 17 18 19 20 21 22 23 24 25 26 27 28 29 30 31 32 33 34 35 36 37 38 39 40 41 42 43 44 45 46 47 48 49 50
000
ASUS41 KLWX 141611
RWRLWX

REGIONAL WEATHER ROUNDUP
NATIONAL WEATHER SERVICE BALTIMORE MD/WASHINGTON DC
1100 AM EST THU DEC 14 2017

Note: "FAIR" indicates few or no clouds below 12,000 feet
with no significant weather and/or obstructions to visibility.
 TC=TEMPERATURE CELSIUS

 * =Non NWS site. Station does not report precipitation (e.g. rain,
    snow, etc.), thunder, or fog.

DCZ001-MDZ009-015-VAZ040>042-051-053>054-141700-
WASHINGTON METRO

CITY           SKY/WX    TMP DP  RH WIND       PRES   REMARKS
WASHINGTON NAT CLOUDY    42  22  44 NW24G32   29.84R
DULLES         PTSUNNY   37  20  50 NW15G28   29.86R WCI  28
ANDREWS AFB    CLOUDY    39  23  51 NW16      29.85R
FT BELVOIR     CLOUDY    41  21  45 NW17G24   29.84R
QUANTICO       CLOUDY    44  21  40 NW20G31   29.86R
COLLEGE PARK*  PTSUNNY   40  21  46 NW16G30   29.81R
LEESBURG*      CLOUDY    36  23  60 N16G22    29.87R WCI  26
MANASSAS*      CLOUDY    40  23  50 N17       29.86R
GAITHERSBURG*  PTSUNNY   37  19  48 W20G26    29.83R WCI  27

$$

MDZ006>007-011-014-141700-
BALTIMORE METRO

CITY           SKY/WX    TMP DP  RH WIND       PRES   REMARKS
BWI AIRPORT    MOSUNNY   37  24  59 NW15G26   29.82R WCI  28
MD SCIENCE CTR   N/A     39  22  50 MISG      29.82R
MARTIN STATE   MOSUNNY   37  27  65 W22G33    29.83R WCI  27
ANNAPOLIS      CLOUDY    39  27  62 NW10G28   29.83R
FORT MEADE*    CLOUDY    36  27  69 NW13G24   29.84R WCI  27

$$

MDZ012-015-019>023-141700-
MARYLAND EASTERN SHORE

CITY           SKY/WX    TMP DP  RH WIND       PRES   REMARKS
OCEAN CITY     SUNNY     46  27  47 NW14G31   29.77R
SALISBURY      SUNNY     45  25  45 W17G29    29.77R
BAY BRIDGE AP* CLOUDY    39  28  65 N17G25    29.81R
CAMBRIDGE*     MOSUNNY   45  25  45 NW16G26   29.80R
EASTON*        PTSUNNY   41  25  52 W12G17    29.84R

$$

MDZ017>025-141700-
SOUTHERN MARYLAND

CITY           SKY/WX    TMP DP  RH WIND       PRES   REMARKS
PATUXENT RIVER MOSUNNY   45  24  43 NW21G29   29.80R
ST INIGOES     MOSUNNY   45  25  45 NW12      29.81R
LEONARDTOWN*   SUNNY     45  23  42 W10G17    29.81R

$$

MDZ003>005-141700-
NORTH CENTRAL MARYLAND

CITY           SKY/WX    TMP DP  RH WIND       PRES   REMARKS
FREDERICK*     MOSUNNY   36  18  48 N17G30    29.87R WCI  25
HAGERSTOWN APT PTSUNNY   32  17  54 N14       29.83R WCI  22
WESTMINSTER*   MOSUNNY   32  21  64 NW14G24   29.79R WCI  22

$$

MDZ501>502-141700-
WESTERN MARYLAND

CITY           SKY/WX    TMP DP  RH WIND       PRES   REMARKS
OAKLAND*       CLOUDY    19  16  86 NW12G22   29.73R WCI   7
CUMBERLAND*    PTSUNNY   34  19  55 N10       29.89S WCI  26

$$

VAZ025>031-141700-
SHENANDOAH VALLEY

CITY           SKY/WX    TMP DP  RH WIND       PRES   REMARKS
WINCHESTER*    CLOUDY    34  19  55 NW14G24   29.86R WCI  24
FRONT ROYAL*   CLOUDY    36  18  48 NW7       29.84R
LURAY*         PTSUNNY   39  21  48 NW10      29.83R
NEW MARKET*    CLOUDY    38  17  41 NW8       29.82R
STAUNTON*      PTSUNNY   38  19  46 W9        29.85R
WAYNESBORO*    MOSUNNY   37  19  48 NW8G18    29.81R

$$

WVZ021-048>050-054>055-141700-
EASTERN WEST VIRGINIA PANHANDLE

CITY           SKY/WX    TMP DP  RH WIND       PRES   REMARKS
MARTINSBURG    MOSUNNY   35  17  47 NW17G24   29.85R WCI  25
PETERSBURG*    MOSUNNY   35  18  50 W14G24    29.86R WCI  25

$$

VAZ036>039-050-141700-
CENTRAL FOOTHILLS

CITY           SKY/WX    TMP DP  RH WIND       PRES   REMARKS
CHARLOTTESVILL PTSUNNY   45  20  36 NW10      29.82R
CULPEPER*      CLOUDY    44  17  33 NW7       29.85R
ORANGE*        PTSUNNY   43  21  42 W13       29.82R
GORDONSVILLE*  SUNNY     43  22  42 NW10G21   29.82R
WARRENTON*     CLOUDY    43  17  34 NW13      29.84R

$$

VAZ055>057-141700-
NORTH AND CENTRAL PIEDMONT

CITY           SKY/WX    TMP DP  RH WIND       PRES   REMARKS
FREDERICKSBRG* MOSUNNY   45  24  44 N8G16     29.82R
STAFFORD*      MOSUNNY   42  22  44 NW9G18    29.87R

$$

NCZ024-NYZ072-PAZ021-071-VAZ022-071-141700-
OTHER REGIONAL OBSERVATIONS

CITY           SKY/WX    TMP DP  RH WIND       PRES   REMARKS
NEW YORK CITY  PTSUNNY   28  21  75 N7        29.73R
PHILADELPHIA   MOSUNNY   33  23  66 NW20G30   29.78R WCI  21
PITTSBURGH     MOSUNNY   25  15  66 NW13      29.93R WCI  14
ROANOKE        PTSUNNY   42  24  49 NW13G22   29.86R
RICHMOND       MOSUNNY   51  23  33 NW13      29.82R
RALEIGH        MOSUNNY   49  24  37 W6        29.86R

$$

ANZ530>537-141700-
MARINE OBSERVATIONS

STATION/POSITION TIME  TEMP    WIND        PRES
                       AIR SEA DIR/SP/G
                 (UTC) (F)     (DEG/KT/KT) (MB)
THOMAS PT LIGHT  1600   40 45  320/ 18/ 21   N/A
BALT KEY BRIDGE  1536   37     320/ 19/ 24 1009.3R
COVE POINT       1548   43     330/ 21/ 32 1010.0R
LEWISETTA        1536   43 42  320/ 10/ 12 1009.5R
SOLOMONS ISLAND  1542   44 46  320/ 13/ 20 1008.9R
PINEY POINT      1536          330/ 14/ 15   N/A

$$




USA.gov is the U.S. government's official web portal to all federal, state and local government web resources and services.